Find Starlink 4314

NORAD ID: 53056 Int'l Des: 2022-077 Owner: SPXS Country: US Constellation: starlink operational
LEOCIRCULARRETROGRADESSO

現在のビュー

3D地球を読み込み中...

About Starlink 4314

Starlink 4314 (NORAD 53056) is a starlink constellation satellite (v1.5) launched Jul 11, 2022 by SPXS of US. It operates in LEO, CIRCULAR, RETROGRADE, SSO orbit with a mass of 297.00 kg.

次回通過

Passes for default location (London). Set your location on the main map for personalized predictions.

高度履歴

Loading altitude history...

軌道要素

1 53056U 22077P 26265.91807466 .00000469 00000-0 16861-4 0 9994
2 53056 97.2842 81.6672 0001687 90.6288 269.5148 15.33434034230727
Epoch: Sep 22, 2026 • Age: 6 hours

現在のステータス

高度 469.6 km
遠地点 / 近地点 N/A
速度 7.63 km/s
衛星直下点 -5.14°S, 153.81°W
打ち上げ日 Jul 11, 2022
運用期間 4.2 years
タイプ internet

技術仕様

分類 Payload
質量 297.00 kg
乾燥質量 275.00 kg
長さ 0.20 m
スパン 9.00 m
形状 ? Box + pan
製造者 SPXS
バスタイプ Starlink
フェーズステータス In Orbit
所有者/国 SPXS/US

Most Searched